Vertical_Velocity
-1 -0 -1 -1 0 -0 0 -1 -2 -3 -2 -1 1 2 1 1 -2 -2 3 0 -1 -2 0 -5 4 3 12 9 5 3 4 6 0 1 2 2 0 2
0 1 0 -0 -1 -1 -0 1 0 -3 -2 1 -1 1 0 -0 3 3 -0 1 3 2 4 2 -0 2 -0 -2 -3 -2 -0 -0 -0 3 1 -0 -1 -5
-0 0 -0 -1 -1 -1 -1 -3 -1 -0 -2 -1 0 -1 -1 1 -1 -0 3 2 -1 3 3 -2 -5 -4 -3 -3 2 -4 -3 -1 -2 -3 -3 -3 -3 -2
-1 -1 -0 -1 -1 -0 -0 0 -1 -1 -2 -2 -0 -0 -1 -4 -2 -3 -2 0 3 -0 -4 -1 1 4 2 2 -0 -1 1 -1 -4 -5 -2 -5 -2 -1
-0 -1 -1 -1 -1 -2 -3 -3 -3 -2 0 0 -2 -2 -2 -1 -2 -2 -2 -2 -2 2 4 3 2 -1 -2 -1 -1 -1 -2 -3 -1 -2 -0 1 3 2
1 1 0 0 -1 -1 -0 -1 -1 -2 -1 -1 -0 -1 -3 -3 -1 -2 -3 -3 -2 -3 -3 -2 -0 0 -2 -2 -1 -0 1 2 1 -1 -2 -1 -2 -2
-2 -1 1 2 1 -0 -2 -1 -1 -1 -0 1 1 -0 -2 -1 -1 -2 -2 -2 -2 -2 -2 -4 -4 -5 -7 -6 -5 -5 -4 -4 -3 -1 0 -0 -1 -2
-0 -0 -0 -1 1 3 3 1 -0 -2 -2 -1 1 1 1 0 0 -1 -3 -2 -1 -2 -1 -1 -0 -0 1 -0 -0 -1 -0 -1 -2 -1 -2 -1 -1 -1
-1 -2 -1 -2 -0 0 1 0 1 1 1 1 1 -0 -1 -0 2 0 -0 -0 -2 -2 -1 -0 -1 -1 -1 -1 -1 -1 -1 -2 -2 -4 -2 0 1 -0
1 -1 0 -0 4 5 5 0 2 1 -2 -0 -0 -2 1 -1 -0 1 2 -0 -1 -1 -1 -3 -2 -1 -2 -1 -2 -0 2 2 1 -1 -0 -0 -0 -0
1 3 4 4 -4 0 3 2 6 1 1 3 4 2 -3 -0 2 1 0 -1 1 -1 -2 1 -1 -2 -1 0 1 -1 -1 1 0 -2 -2 -2 -1 1
-1 2 3 3 -5 -1 7 -0 8 -9 8 4 1 2 2 -0 -2 -1 0 -1 0 3 -2 1 -2 -3 -2 -6 -2 -2 -1 2 -2 0 1 0 1 4
6 2 1 -3 3 2 3 4 -3 -0 3 -1 1 -1 -0 -1 1 1 1 -6 1 1 -2 -2 -3 -2 -4 -1 -3 0 -0 -1 2 -3 -1 -2 -2 2
4 3 -0 -8 3 7 2 10 4 7 -1 -2 2 -1 -0 2 5 -1 1 -0 1 1 -1 -0 1 -2 -4 -4 -5 -4 0 1 -1 0 -2 -1 -1 1
3 -0 3 -1 -1 4 4 2 0 2 2 2 1 -1 4 4 -0 3 -0 -2 -1 -1 3 1 2 -1 -2 -3 -1 -6 -0 -10 4 2 -1 -1 -1 -0
-2 5 -0 -1 -2 1 3 -1 0 2 2 1 2 1 4 -0 5 4 -1 -3 2 2 2 0 -0 -1 -4 -0 -2 -3 -1 -4 -3 -4 1 -5 -5 1
-2 4 3 -1 1 5 2 -2 -1 0 1 3 2 1 2 6 1 3 5 3 3 1 2 1 1 -0 -2 -1 -4 3 -1 -2 0 -3 0 2 -11 -2
-4 4 -1 1 -1 -0 4 -2 1 2 1 3 -1 7 4 1 3 2 3 3 2 1 1 3 1 -1 -2 -3 -2 -3 1 -1 -5 -6 1 8 -8 -9
-2 3 -3 5 -6 8 9 3 6 2 -1 2 1 1 3 3 2 1 3 3 1 1 3 2 0 -1 -0 -2 -4 -0 3 -1 -1 -4 -0 -2 5 -5
0 -2 -1 1 6 -2 4 7 3 4 2 5 0 3 2 1 5 3 3 4 2 3 1 2 0 2 -0 -1 -2 -14 10 4 1 0 -1 -6 2 -1
-3 -2 -1 -1 -1 2 -0 -1 -2 2 4 5 8 5 5 4 2 3 2 4 4 1 0 1 1 1 -1 0 1 -2 -8 4 2 4 1 -3 -3 -12
-1 -0 1 2 2 2 -0 -3 -2 -1 2 6 6 6 5 2 4 2 2 3 2 1 -1 -0 1 1 -1 -0 -3 1 -5 -5 2 3 7 -0 3 1
3 -5 -5 -0 2 2 -0 0 0 1 -0 0 1 4 2 2 3 3 3 3 -0 2 -2 0 1 -0 1 -1 -0 -1 -1 0 -5 -6 7 0 -3 -1
Height
5705 5702 5699 5696 5693 5691 5688 5685 5681 5676 5671 5668 5663 5658 5653 5649 5645 5641 5637 5634 5632 5631 5632 5636 5637 5638 5638 5640 5642 5642 5641 5642 5644 5645 5646 5646 5646 5646
5699 5696 5694 5691 5688 5686 5684 5681 5678 5674 5670 5665 5660 5655 5651 5646 5642 5639 5636 5634 5633 5631 5631 5631 5632 5634 5634 5634 5635 5636 5637 5636 5636 5635 5635 5635 5636 5636
5693 5691 5688 5686 5683 5681 5678 5675 5673 5670 5667 5662 5658 5654 5649 5644 5640 5637 5634 5632 5629 5628 5628 5627 5628 5628 5629 5629 5629 5630 5629 5627 5627 5626 5626 5625 5625 5625
5686 5684 5682 5680 5678 5675 5673 5670 5668 5665 5662 5658 5655 5651 5647 5643 5639 5635 5632 5629 5628 5627 5625 5624 5623 5623 5622 5621 5620 5618 5617 5616 5616 5616 5614 5613 5611 5611
5679 5677 5674 5672 5670 5668 5666 5663 5661 5659 5657 5654 5650 5647 5643 5640 5636 5632 5629 5626 5623 5621 5620 5620 5618 5617 5616 5614 5612 5611 5610 5608 5606 5604 5603 5602 5601 5600
5671 5669 5666 5664 5661 5660 5657 5655 5653 5651 5649 5646 5644 5641 5638 5634 5631 5628 5625 5622 5619 5617 5614 5611 5610 5608 5608 5606 5605 5603 5601 5599 5597 5596 5595 5593 5591 5590
5661 5659 5658 5656 5654 5651 5648 5646 5644 5642 5640 5638 5635 5632 5630 5627 5624 5621 5618 5615 5612 5610 5606 5604 5602 5599 5597 5595 5593 5592 5590 5588 5587 5585 5583 5581 5580 5579
5650 5648 5646 5644 5642 5640 5638 5635 5633 5630 5628 5627 5624 5622 5620 5617 5614 5612 5609 5607 5604 5601 5597 5594 5591 5589 5586 5584 5582 5580 5578 5576 5575 5573 5571 5569 5568 5566
5638 5635 5634 5632 5630 5629 5627 5625 5622 5620 5616 5614 5612 5610 5608 5606 5604 5602 5599 5596 5594 5590 5587 5584 5581 5578 5575 5573 5570 5567 5565 5563 5561 5559 5557 5556 5554 5553
5623 5621 5618 5616 5615 5613 5611 5609 5607 5606 5603 5601 5600 5597 5595 5594 5591 5590 5588 5586 5582 5579 5575 5572 5569 5567 5564 5561 5558 5555 5552 5550 5547 5545 5543 5542 5540 5538
5606 5604 5602 5600 5597 5595 5594 5592 5591 5588 5586 5586 5584 5583 5581 5579 5577 5575 5574 5573 5570 5567 5564 5560 5557 5554 5551 5548 5545 5542 5539 5537 5534 5532 5530 5528 5527 5526
5588 5586 5584 5581 5579 5577 5576 5574 5573 5570 5570 5568 5566 5565 5564 5562 5561 5561 5558 5557 5555 5553 5550 5548 5544 5542 5540 5536 5533 5530 5527 5524 5520 5518 5516 5515 5514 5513
5569 5565 5562 5560 5559 5557 5556 5555 5554 5552 5551 5551 5549 5548 5546 5545 5544 5544 5542 5540 5539 5538 5536 5533 5530 5528 5526 5524 5520 5516 5514 5511 5508 5504 5502 5500 5499 5498
5548 5544 5541 5538 5538 5538 5537 5535 5533 5533 5531 5530 5529 5528 5527 5527 5527 5526 5526 5524 5523 5522 5520 5518 5515 5513 5511 5509 5506 5503 5501 5498 5495 5491 5489 5487 5485 5484
5525 5522 5520 5517 5518 5518 5516 5513 5513 5514 5511 5510 5509 5509 5509 5509 5508 5509 5508 5508 5507 5507 5505 5502 5499 5498 5496 5494 5492 5489 5486 5483 5481 5478 5475 5473 5471 5470
5504 5501 5498 5497 5498 5497 5496 5494 5495 5493 5493 5493 5492 5492 5492 5490 5492 5492 5491 5492 5493 5492 5489 5488 5486 5485 5483 5482 5479 5476 5474 5470 5468 5465 5462 5458 5456 5455
5484 5482 5478 5476 5477 5476 5477 5477 5477 5476 5475 5473 5474 5474 5475 5476 5476 5477 5479 5478 5478 5476 5475 5474 5473 5472 5471 5469 5465 5464 5461 5458 5456 5454 5452 5447 5443 5443
5466 5463 5460 5460 5461 5459 5458 5459 5458 5458 5458 5457 5457 5457 5459 5460 5461 5463 5464 5463 5463 5462 5462 5462 5462 5460 5459 5456 5453 5451 5449 5447 5445 5442 5440 5438 5432 5432
5448 5447 5446 5447 5446 5445 5441 5442 5441 5441 5441 5441 5440 5442 5444 5446 5447 5448 5449 5449 5450 5450 5450 5450 5450 5449 5448 5445 5442 5440 5438 5436 5434 5431 5429 5427 5425 5420
5435 5433 5432 5432 5432 5432 5431 5427 5427 5427 5427 5427 5428 5428 5430 5432 5434 5435 5435 5437 5437 5438 5439 5438 5438 5437 5435 5434 5431 5428 5429 5426 5424 5422 5420 5416 5413 5410
5424 5422 5420 5419 5418 5417 5417 5417 5416 5416 5416 5416 5417 5419 5420 5421 5422 5424 5424 5425 5427 5427 5427 5427 5426 5425 5425 5423 5421 5418 5416 5417 5416 5414 5410 5406 5402 5398
5417 5415 5413 5411 5409 5407 5405 5404 5404 5403 5404 5404 5404 5406 5407 5408 5410 5411 5412 5413 5414 5415 5415 5415 5415 5415 5415 5413 5411 5410 5408 5407 5407 5405 5402 5398 5395 5390
5410 5409 5407 5404 5402 5400 5398 5396 5394 5394 5393 5393 5393 5393 5394 5396 5397 5398 5400 5401 5402 5403 5404 5404 5405 5405 5404 5403 5402 5401 5400 5399 5397 5396 5394 5389 5386 5383